KOZAKOV Weather Reports


time (UTC)temp
C
wind
direction
speed
KPH
gust
KPH
rain 1hr
cm
rain 24hr
cm
rain mn
cm
humidity
%
barometer
mb
20260506112517 12 241 17.7 20.9 0.00 0.00 0.00 100
20260506112020 12 245 17.7 20.9 0.00 0.00 0.00 100
20260506111518 12 250 14.5 25.7 0.00 0.00 0.00 100
20260506111018 11 247 17.7 25.7 0.00 0.00 0.00 100
20260506110517 12 238 17.7 20.9 0.00 0.00 0.00 100
20260506110017 11 249 17.7 20.9 0.00 0.00 0.00 100
20260506105518 11 237 14.5 17.7 0.00 0.00 0.00 100
20260506105018 11 235 14.5 25.7 0.00 0.00 0.00 100
20260506104519 11 215 11.3 17.7 0.00 0.00 0.00 100
20260506104017 11 226 14.5 17.7 0.00 0.00 0.00 100
20260506103517 11 233 14.5 20.9 0.00 0.00 0.00 100
20260506103018 11 250 20.9 25.7 0.00 0.00 0.00 100
20260506102517 11 223 14.5 17.7 0.00 0.00 0.00 100
20260506102024 11 226 14.5 20.9 0.00 0.00 0.00 100
20260506101518 11 235 14.5 17.7 0.00 0.00 0.00 100
20260506101017 10 233 11.3 17.7 0.00 0.00 0.00 100
20260506100517 10 242 14.5 17.7 0.00 0.00 0.00 100
20260506100017 10 246 11.3 14.5 0.00 0.00 0.00 100
20260506095518 10 246 14.5 20.9 0.00 0.00 0.00 100
20260506095018 10 248 17.7 17.7 0.00 0.00 0.00 100
20260506094518 10 248 17.7 20.9 0.00 0.00 0.00 100
20260506094018 10 248 17.7 25.7 0.00 0.00 0.00 100
20260506093518 10 242 14.5 20.9 0.00 0.00 0.00 100
20260506093018 10 245 17.7 20.9 0.00 0.00 0.00 100
20260506092522 10 243 11.3 14.5 0.00 0.00 0.00 100
20260506092021 8 240 11.3 17.7 0.00 0.00 0.00 100
20260506091517 8 238 17.7 20.9 0.00 0.00 0.00 100
20260506091017 8 255 14.5 17.7 0.00 0.00 0.00 100
20260506090518 8 247 17.7 25.7 0.00 0.00 0.00 100
20260506090017 8 258 17.7 25.7 0.00 0.00 0.00 100
20260506085518 8 259 17.7 25.7 0.00 0.00 0.00 100
20260506085017 8 256 20.9 25.7 0.00 0.00 0.00 100
20260506084517 8 251 20.9 25.7 0.00 0.00 0.00 100
20260506084017 8 256 17.7 25.7 0.00 0.00 0.00 100
20260506083516 8 242 17.7 20.9 0.00 0.00 0.00 100
20260506083018 8 231 14.5 20.9 0.00 0.00 0.00 100
20260506082518 8 232 6.4 6.4 0.00 0.00 0.00 100
20260506082019 8 242 14.5 17.7 0.00 0.00 0.00 100
20260506081517 8 219 11.3 17.7 0.00 0.00 0.00 100
20260506081019 8 252 14.5 17.7 0.00 0.00 0.00 100
20260506080524 7 244 14.5 14.5 0.00 0.00 0.00 100
20260506073517 7 245 14.5 17.7 0.00 0.00 0.00 100
20260506073017 7 253 14.5 17.7 0.00 0.00 0.00 100
20260506072518 7 245 17.7 20.9 0.00 0.00 0.00 100
20260506072020 7 237 14.5 17.7 0.00 0.00 0.00 100
20260506071517 7 241 17.7 25.7 0.00 0.00 0.00 100
20260506071017 7 258 20.9 25.7 0.00 0.00 0.00 100
20260506070518 7 249 25.7 32.2 0.00 0.00 0.00 100
20260506062021 7 251 25.7 32.2 0.00 0.00 0.00 100
20260506061518 7 264 17.7 29.0 0.00 0.00 0.00 100
20260506061017 7 258 17.7 32.2 0.00 0.00 0.00 100
20260506060517 7 248 20.9 29.0 0.00 0.00 0.00 100
20260506051018 7 243 14.5 17.7 0.00 0.00 0.00 100
20260506050518 7 254 11.3 17.7 0.00 0.00 0.00 100
20260506045019 7 249 17.7 17.7 0.00 0.00 0.00 100
20260506044517 7 245 17.7 20.9 0.00 0.00 0.00 100
20260506044017 7 256 11.3 20.9 0.00 0.00 0.00 100
20260506043517 7 256 20.9 29.0 0.00 0.00 0.00 100
20260506043017 7 261 17.7 20.9 0.00 0.00 0.00 100
20260506042517 7 247 20.9 29.0 0.00 0.00 0.00 100
20260506042023 7 255 17.7 17.7 0.00 0.00 0.00 100
20260506041517 7 265 17.7 20.9 0.00 0.00 0.00 100
20260506041018 7 253 14.5 20.9 0.00 0.00 0.00 100
20260506040517 7 261 14.5 20.9 0.00 0.00 0.00 100
20260506040017 7 247 17.7 20.9 0.00 0.00 0.00 100
20260506035518 7 257 17.7 20.9 0.00 0.00 0.00 100
20260506035017 7 267 17.7 20.9 0.00 0.00 0.00 100
20260506034518 7 263 17.7 20.9 0.00 0.00 0.00 100
20260506034018 7 258 11.3 17.7 0.00 0.00 0.00 100
20260506033518 7 252 17.7 20.9 0.00 0.00 0.00 100
20260506033017 7 241 14.5 17.7 0.00 0.00 0.00 100
20260506032517 7 251 14.5 20.9 0.00 0.00 0.00 100
20260506032022 7 241 20.9 25.7 0.00 0.00 0.00 100
20260506031518 7 242 17.7 25.7 0.00 0.00 0.00 100
20260506030518 7 246 17.7 20.9 0.00 0.00 0.00 100
20260506030018 7 249 14.5 17.7 0.00 0.00 0.00 100
20260506025517 7 244 17.7 20.9 0.00 0.00 0.00 100
20260506024519 7 247 20.9 25.7 0.00 0.00 0.00 100
20260506024017 7 248 20.9 29.0 0.00 0.00 0.00 100
20260506023518 7 248 17.7 20.9 0.00 0.00 0.00 100
20260506023018 7 248 14.5 17.7 0.00 0.00 0.00 100
20260506022517 7 237 14.5 17.7 0.00 0.00 0.00 100
20260506022020 8 241 17.7 20.9 0.00 0.00 0.00 100
20260506021518 8 238 17.7 20.9 0.00 0.00 0.00 100
20260506021018 8 237 17.7 20.9 0.00 0.00 0.00 100
20260506020517 8 231 17.7 20.9 0.00 0.00 0.00 100
20260506020018 10 235 17.7 20.9 0.00 0.00 0.00 100
20260506015516 10 242 17.7 20.9 0.00 0.00 0.00 100
20260506015025 10 233 17.7 20.9 0.00 0.00 0.00 100
20260506014518 10 236 14.5 17.7 0.00 0.00 0.00 100
20260506014017 10 254 20.9 20.9 0.00 0.00 0.00 100
20260506013518 11 240 14.5 14.5 0.00 0.00 0.00 100
20260506013018 11 259 11.3 11.3 0.00 0.00 0.00 100
20260506012516 10 291 6.4 11.3 0.00 0.00 0.00 100
20260506012017 8 286 3.2 6.4 0.00 0.00 0.00 100
20260506011017 7 39 3.2 3.2 0.00 0.00 0.00 100
20260506010517 7 39 6.4 6.4 0.00 0.00 0.00 100
20260506010017 7 43 6.4 6.4 0.00 0.00 0.00 100
20260506005517 7 34 11.3 11.3 0.00 0.00 0.00 100
20260506005017 7 27 6.4 6.4 0.00 0.00 0.00 100
20260506004518 7 16 6.4 6.4 0.00 0.00 0.00 100
20260506004017 7 18 0.0 3.2 0.00 0.00 0.00 100
20260506003517 8 6 0.0 3.2 0.00 0.00 0.00 100
20260506003018 7 6 0.0 6.4 0.00 0.00 0.00 100
20260506002516 8 17 0.0 3.2 0.00 0.00 0.00 100
20260506002018 8 348 3.2 6.4 0.00 0.00 0.00 100
20260506001517 7 324 11.3 14.5 0.00 0.00 0.00 100
20260506001018 7 332 14.5 17.7 0.00 0.00 0.00 100
20260506000518 7 339 14.5 17.7 0.00 0.00 0.00 100
20260506000011 8 331 17.7 25.7 0.00 0.00 0.00 100
20260505235517 8 324 20.9 29.0 0.00 0.00 0.00 100
20260505235017 8 302 17.7 20.9 0.00 0.00 0.00 100
20260505234517 7 318 25.7 32.2 0.00 0.00 0.00 100
20260505234018 7 301 20.9 29.0 0.00 0.00 0.00 100
20260505233517 7 314 25.7 35.4 0.00 0.00 0.00 100
20260505233018 8 307 20.9 25.7 0.00 0.00 0.00 100
20260505232509 8 308 17.7 25.7 0.00 0.00 0.00 100
20260505232012 8 312 20.9 29.0 0.00 0.00 0.00 100
20260505231510 8 297 20.9 29.0 0.00 0.00 0.00 100
20260505231017 8 305 20.9 32.2 0.00 0.00 0.00 100
20260505230518 8 297 20.9 29.0 0.00 0.00 0.00 100
20260505230017 8 278 20.9 25.7 0.00 0.00 0.00 100
20260505225516 10 270 17.7 29.0 0.00 0.00 0.00 100
20260505225017 10 295 20.9 35.4 0.00 0.00 0.00 100
20260505224517 10 262 11.3 17.7 0.00 0.00 0.00 100
20260505224025 10 283 20.9 25.7 0.00 0.00 0.00 100
20260505223517 11 271 17.7 20.9 0.00 0.00 0.00 100
20260505223018 11 263 6.4 14.5 0.00 0.00 0.00 100
20260505222517 11 266 14.5 17.7 0.00 0.00 0.00 100
20260505222020 11 248 14.5 17.7 0.00 0.00 0.00 100
20260505221518 11 264 11.3 14.5 0.00 0.00 0.00 100
20260505221017 11 266 20.9 25.7 0.00 0.00 0.00 100
20260505220517 12 234 14.5 20.9 0.00 0.00 0.00 100
20260505220017 12 252 17.7 29.0 0.00 0.00 0.00 100
20260505215517 12 129 11.3 17.7 0.00 0.00 0.00 100
20260505215022 12 94 29.0 29.0 0.00 0.00 0.00 100
20260505214517 13 85 29.0 32.2 0.00 0.00 0.00 100
20260505214017 12 83 29.0 32.2 0.00 0.00 0.00 100
20260505213517 12 86 32.2 35.4 0.00 0.00 0.00 100
20260505213017 12 84 29.0 32.2 0.00 0.00 0.00 100
20260505212518 12 79 32.2 35.4 0.00 0.00 0.00 100
20260505212018 12 82 32.2 35.4 0.00 0.00 0.00 100
20260505211518 12 75 29.0 32.2 0.00 0.00 0.00 100
20260505211017 12 74 25.7 29.0 0.00 0.00 0.00 100
20260505210517 12 68 29.0 29.0 0.00 0.00 0.00 100
20260505210017 13 70 29.0 32.2 0.00 0.00 0.00 100
20260505205517 13 68 32.2 32.2 0.00 0.00 0.00 99
20260505205016 12 68 29.0 29.0 0.00 0.00 0.00 100
20260505204518 13 65 29.0 29.0 0.00 0.00 0.00 100
20260505204017 13 64 25.7 32.2 0.00 0.00 0.00 100
20260505203524 12 60 29.0 32.2 0.00 0.00 0.00 100
20260505203018 12 56 25.7 29.0 0.00 0.00 0.00 100
20260505202518 12 64 29.0 32.2 0.00 0.00 0.00 100
20260505202027 12 62 25.7 32.2 0.00 0.00 0.00 100
20260505201517 12 58 25.7 32.2 0.00 0.00 0.00 100
20260505201017 12 57 25.7 29.0 0.00 0.00 0.00 100
20260505200518 12 51 25.7 29.0 0.00 0.00 0.00 100
20260505200025 12 50 25.7 29.0 0.00 0.00 0.00 100
20260505195516 12 49 25.7 25.7 0.00 0.00 0.00 100
20260505195017 12 43 25.7 29.0 0.00 0.00 0.00 100
20260505194518 12 50 25.7 29.0 0.00 0.00 0.00 100
20260505194017 12 52 25.7 29.0 0.00 0.00 0.00 100
20260505193518 12 55 25.7 29.0 0.00 0.00 0.00 100
20260505193018 12 57 20.9 25.7 0.00 0.00 0.00 100
20260505192517 12 59 20.9 25.7 0.00 0.00 0.00 100
20260505192019 12 46 17.7 17.7 0.00 0.00 0.00 99
20260505191518 12 53 17.7 20.9 0.00 0.00 0.00 100
20260505191017 13 52 17.7 17.7 0.00 0.00 0.00 95
20260505190517 13 74 14.5 17.7 0.00 0.00 0.00 100
20260505190018 13 56 14.5 14.5 0.00 0.00 0.00 100
20260505185518 13 91 3.2 17.7 0.00 0.00 0.00 100
20260505185025 12 149 3.2 6.4 0.00 0.00 0.00 100
20260505184518 12 149 11.3 11.3 0.00 0.00 0.00 100
20260505184018 12 157 11.3 14.5 0.00 0.00 0.00 100
20260505183517 12 190 17.7 17.7 0.00 0.00 0.00 100
20260505183018 12 182 17.7 25.7 0.00 0.00 0.00 100
20260505182517 12 200 17.7 20.9 0.00 0.00 0.00 100
20260505182020 12 180 20.9 29.0 0.00 0.00 0.00 100
20260505181517 13 154 6.4 14.5 0.00 0.00 0.00 100
20260505181017 15 61 11.3 11.3 0.00 0.00 0.00 100
20260505180517 15 38 17.7 20.9 0.00 0.00 0.00 100
20260505180018 15 39 20.9 20.9 0.00 0.00 0.00 100
20260505175517 15 37 20.9 20.9 0.00 0.00 0.00 100
20260505175017 15 36 17.7 20.9 0.00 0.00 0.00 100
20260505174517 15 34 17.7 20.9 0.00 0.00 0.00 100
20260505174017 15 32 14.5 17.7 0.00 0.00 0.00 100
20260505173518 15 26 17.7 20.9 0.00 0.00 0.00 100
20260505173022 15 23 11.3 17.7 0.00 0.00 0.00 100
20260505172518 15 28 14.5 17.7 0.00 0.00 0.00 100
20260505172019 15 19 14.5 14.5 0.00 0.00 0.00 100
20260505171510 16 16 11.3 14.5 0.00 0.00 0.00 99
20260505171017 16 16 11.3 11.3 0.00 0.00 0.00 97
20260505170524 16 20 11.3 14.5 0.00 0.00 0.00 96
20260505170017 16 12 11.3 14.5 0.00 0.00 0.00 94
20260505165518 16 12 6.4 6.4 0.00 0.00 0.00 92
20260505165017 16 16 3.2 6.4 0.00 0.00 0.00 89
20260505164518 16 37 11.3 11.3 0.00 0.00 0.00 88
20260505164017 16 34 11.3 14.5 0.00 0.00 0.00 87
20260505163518 16 32 6.4 11.3 0.00 0.00 0.00 85
20260505163019 17 22 11.3 11.3 0.00 0.00 0.00 82
20260505162517 17 25 11.3 14.5 0.00 0.00 0.00 81
20260505162017 16 27 14.5 14.5 0.00 0.00 0.00 81
20260505161518 17 33 11.3 14.5 0.00 0.00 0.00 77
20260505161017 17 24 11.3 14.5 0.00 0.00 0.00 74
20260505160517 17 29 11.3 11.3 0.00 0.00 0.00 72
20260505153017 17 352 3.2 6.4 0.00 0.00 0.00 56
20260505152517 17 33 3.2 14.5 0.00 0.00 0.00 55
20260505152019 17 295 0.0 3.2 0.00 0.00 0.00 49
20260505151517 20 244 0.0 3.2 0.00 0.00 0.00 44
20260505151017 18 243 6.4 11.3 0.00 0.00 0.00 45
20260505150518 18 242 3.2 6.4 0.00 0.00 0.00 45
20260505140518 20 87 0.0 6.4 0.00 0.00 0.00 43
20260505125017 17 42 3.2 6.4 0.00 0.00 0.00 48
20260505124517 17 90 11.3 11.3 0.00 0.00 0.00 48
20260505124017 17 160 6.4 6.4 0.00 0.00 0.00 49
20260505123518 17 177 6.4 11.3 0.00 0.00 0.00 48
20260505123017 17 168 6.4 14.5 0.00 0.00 0.00 49
20260505122516 17 122 6.4 14.5 0.00 0.00 0.00 48
20260505122020 17 162 6.4 11.3 0.00 0.00 0.00 48
20260505121017 17 224 6.4 11.3 0.00 0.00 0.00 48
20260505120517 18 221 0.0 3.2 0.00 0.00 0.00 49
20260505120017 18 195 6.4 11.3 0.00 0.00 0.00 47
20260505115517 18 202 0.0 3.2 0.00 0.00 0.00 49
20260505115017 17 252 6.4 6.4 0.00 0.00 0.00 50
20260505114517 17 251 6.4 11.3 0.00 0.00 0.00 49
20260505114021 17 225 3.2 3.2 0.00 0.00 0.00 49
20260505113518 17 267 6.4 11.3 0.00 0.00 0.00 48
20260505113018 17 273 3.2 3.2 0.00 0.00 0.00 48